EIN1LH EINN-KJFK

Flight info

Callsign EIN1LH
Flight time N/A
Altitude 36000
Route UNBEG3A UNBEG DCT LUPOR DCT LONDU DCT RILED DCT TOBOR/M077F360 NATG IBERG/N0449F360 N364A TUSKY DCT PLYMM PARCH4
Aircraft A21N/M-SDE2E3FGHIRWXY/LB1

Departure

Time N/A
Airport Shannon Airport (EINN)

Arrival

Time 2026-05-09 16:45
Airport John F. Kennedy International Airport (KJFK)
Time Latitude Longitude Altitude Speed Heading
2026-05-09 16:16 41.63940 -71.16298 37988 ft 383 kts 237°
2026-05-09 16:17 41.60766 -71.22008 37988 ft 382 kts 238°
2026-05-09 16:17 41.57580 -71.27725 37986 ft 383 kts 237°
2026-05-09 16:18 41.54398 -71.33427 37982 ft 382 kts 237°
2026-05-09 16:18 41.51203 -71.39138 37985 ft 383 kts 237°
2026-05-09 16:19 41.48017 -71.44827 37984 ft 382 kts 237°
2026-05-09 16:19 41.44839 -71.50487 37981 ft 382 kts 237°
2026-05-09 16:20 41.41640 -71.56171 37975 ft 382 kts 237°
2026-05-09 16:20 41.38444 -71.61845 37979 ft 382 kts 237°
2026-05-09 16:21 41.35240 -71.67515 37965 ft 382 kts 237°
2026-05-09 16:21 41.33640 -71.70348 37742 ft 382 kts 237°
2026-05-09 16:21 41.32055 -71.73151 37524 ft 380 kts 237°
2026-05-09 16:22 41.30464 -71.75959 37309 ft 377 kts 237°
2026-05-09 16:22 41.28893 -71.78725 37091 ft 375 kts 237°
2026-05-09 16:22 41.27378 -71.81398 36829 ft 372 kts 237°
2026-05-09 16:22 41.25822 -71.84138 36454 ft 371 kts 237°
2026-05-09 16:23 41.24279 -71.86858 36063 ft 372 kts 237°
2026-05-09 16:23 41.22710 -71.89623 35596 ft 378 kts 237°
2026-05-09 16:23 41.21107 -71.92448 34811 ft 388 kts 237°
2026-05-09 16:23 41.19481 -71.95307 33766 ft 394 kts 236°
2026-05-09 16:24 41.17817 -71.98223 33032 ft 393 kts 236°
2026-05-09 16:24 41.16174 -72.01094 32356 ft 391 kts 236°
2026-05-09 16:24 41.14525 -72.03976 31684 ft 389 kts 236°
2026-05-09 16:24 41.12898 -72.06842 30996 ft 388 kts 237°
2026-05-09 16:25 41.11405 -72.09835 30249 ft 386 kts 241°
2026-05-09 16:25 41.10115 -72.12934 29500 ft 392 kts 245°
2026-05-09 16:25 41.08996 -72.16209 28714 ft 393 kts 249°
2026-05-09 16:25 41.08073 -72.19597 28068 ft 388 kts 252°
2026-05-09 16:26 41.07219 -72.22984 27564 ft 380 kts 252°
2026-05-09 16:26 41.06402 -72.26243 27060 ft 373 kts 252°
2026-05-09 16:26 41.05587 -72.29502 26557 ft 367 kts 252°
2026-05-09 16:26 41.04787 -72.32709 26057 ft 362 kts 252°
2026-05-09 16:27 41.04006 -72.35847 25565 ft 357 kts 252°
2026-05-09 16:27 41.03236 -72.38929 25081 ft 353 kts 252°
2026-05-09 16:27 41.02468 -72.42004 24602 ft 349 kts 252°
2026-05-09 16:27 41.01712 -72.45033 24125 ft 345 kts 252°
2026-05-09 16:28 41.00964 -72.48027 23662 ft 341 kts 252°
2026-05-09 16:28 41.00220 -72.50996 23207 ft 339 kts 252°
2026-05-09 16:28 40.99483 -72.53931 22750 ft 336 kts 252°
2026-05-09 16:28 40.98742 -72.56888 22284 ft 334 kts 252°
2026-05-09 16:29 40.98013 -72.59784 21793 ft 333 kts 252°
2026-05-09 16:29 40.97283 -72.62688 21293 ft 332 kts 252°
2026-05-09 16:29 40.96558 -72.65565 20796 ft 331 kts 251°
2026-05-09 16:29 40.95826 -72.68471 20288 ft 331 kts 251°
2026-05-09 16:30 40.95084 -72.71409 19832 ft 339 kts 251°
2026-05-09 16:30 40.94337 -72.74365 19274 ft 338 kts 251°
2026-05-09 16:30 40.93506 -72.77284 18733 ft 337 kts 245°
2026-05-09 16:30 40.92250 -72.79861 18238 ft 337 kts 233°
2026-05-09 16:31 40.90575 -72.82054 17728 ft 339 kts 222°
2026-05-09 16:31 40.88692 -72.83923 17221 ft 338 kts 220°
2026-05-09 16:31 40.86803 -72.85744 16717 ft 337 kts 219°
2026-05-09 16:31 40.84907 -72.87561 16211 ft 335 kts 219°
2026-05-09 16:32 40.83012 -72.89377 15698 ft 333 kts 219°
2026-05-09 16:32 40.81749 -72.90588 15349 ft 332 kts 219°
2026-05-09 16:32 40.79255 -72.92976 14651 ft 330 kts 219°
2026-05-09 16:32 40.77378 -72.94772 14141 ft 328 kts 218°
2026-05-09 16:33 40.75547 -72.96522 13642 ft 326 kts 218°
2026-05-09 16:33 40.73703 -72.98285 13140 ft 324 kts 218°
2026-05-09 16:33 40.71872 -73.00034 12634 ft 322 kts 218°
2026-05-09 16:33 40.70135 -73.01866 12105 ft 319 kts 227°
2026-05-09 16:34 40.68997 -73.04324 11570 ft 318 kts 248°
2026-05-09 16:34 40.68463 -73.07119 11189 ft 312 kts 255°
2026-05-09 16:34 40.68171 -73.09954 10724 ft 313 kts 266°
2026-05-09 16:34 40.68624 -73.12752 10467 ft 310 kts 284°
2026-05-09 16:35 40.69396 -73.15340 10266 ft 301 kts 287°
2026-05-09 16:35 40.70202 -73.17847 10064 ft 291 kts 287°
2026-05-09 16:35 40.70989 -73.20225 9882 ft 281 kts 287°
2026-05-09 16:35 40.71768 -73.22554 9649 ft 273 kts 287°
2026-05-09 16:36 40.72536 -73.24835 9281 ft 271 kts 287°
2026-05-09 16:36 40.74805 -73.31607 8104 ft 265 kts 287°
2026-05-09 16:37 40.75552 -73.33820 7716 ft 258 kts 287°
2026-05-09 16:37 40.76274 -73.35947 7333 ft 251 kts 287°
2026-05-09 16:37 40.76984 -73.38018 6955 ft 246 kts 288°
2026-05-09 16:37 40.77692 -73.40083 6575 ft 245 kts 288°
2026-05-09 16:38 40.78384 -73.42110 6205 ft 245 kts 287°
2026-05-09 16:38 40.79091 -73.44178 5827 ft 245 kts 287°
2026-05-09 16:38 40.79787 -73.46220 5454 ft 245 kts 288°
2026-05-09 16:38 40.80479 -73.48261 5082 ft 245 kts 287°
2026-05-09 16:39 40.81172 -73.50315 4708 ft 245 kts 288°
2026-05-09 16:39 40.81863 -73.52380 4334 ft 245 kts 288°
2026-05-09 16:39 40.82542 -73.54422 3919 ft 247 kts 288°
2026-05-09 16:39 40.83225 -73.56502 3447 ft 247 kts 288°
2026-05-09 16:40 40.83778 -73.58606 2956 ft 240 kts 272°
2026-05-09 16:40 40.83566 -73.60721 2436 ft 230 kts 245°
2026-05-09 16:42 40.75486 -73.66911 1958 ft 183 kts 211°
2026-05-09 16:42 40.74399 -73.67764 1971 ft 181 kts 212°
2026-05-09 16:42 40.73368 -73.68572 2014 ft 164 kts 211°
2026-05-09 16:42 40.72447 -73.69291 1821 ft 146 kts 211°
2026-05-09 16:43 40.71592 -73.69959 1629 ft 141 kts 212°
2026-05-09 16:43 40.70741 -73.70624 1439 ft 139 kts 211°
2026-05-09 16:43 40.69918 -73.71269 1260 ft 139 kts 211°
2026-05-09 16:43 40.69083 -73.71922 1074 ft 138 kts 211°
2026-05-09 16:44 40.68255 -73.72569 892 ft 138 kts 210°
2026-05-09 16:44 40.67433 -73.73212 707 ft 137 kts 210°
2026-05-09 16:44 40.66611 -73.73855 523 ft 137 kts 210°
2026-05-09 16:44 40.65793 -73.74497 339 ft 136 kts 210°
2026-05-09 16:45 40.64983 -73.75128 192 ft 133 kts 210°
2026-05-09 16:45 40.64208 -73.75735 22 ft 123 kts 210°
2026-05-09 16:45 40.63570 -73.76228 17 ft 83 kts 210°
2026-05-09 16:45 40.63212 -73.76510 16 ft 38 kts 211°
2026-05-09 16:46 40.63036 -73.76668 15 ft 22 kts 229°
2026-05-09 16:46 40.62969 -73.76802 15 ft 8 kts 239°
2026-05-09 16:46 40.62936 -73.76876 15 ft 9 kts 243°
2026-05-09 16:46 40.62926 -73.76924 15 ft 0 kts 263°
2026-05-09 16:47 40.62926 -73.76934 15 ft 1 kts 267°
2026-05-09 16:47 40.62927 -73.76954 15 ft 0 kts 290°
2026-05-09 16:47 40.62930 -73.76962 15 ft 1 kts 291°
2026-05-09 16:47 40.62936 -73.76982 15 ft 3 kts 290°
2026-05-09 16:48 40.62943 -73.77008 15 ft 0 kts 292°
2026-05-09 16:48 40.62946 -73.77015 15 ft 1 kts 301°
2026-05-09 16:48 40.62964 -73.77052 15 ft 7 kts 303°
2026-05-09 16:48 40.63002 -73.77129 15 ft 11 kts 302°
2026-05-09 16:49 40.63046 -73.77226 15 ft 12 kts 300°
2026-05-09 16:49 40.63092 -73.77329 15 ft 13 kts 300°
2026-05-09 16:49 40.63141 -73.77435 15 ft 8 kts 301°
2026-05-09 16:50 40.63176 -73.77514 15 ft 0 kts 301°
2026-05-09 16:50 40.63181 -73.77525 15 ft 2 kts 301°
2026-05-09 16:50 40.63185 -73.77533 15 ft 1 kts 301°
2026-05-09 16:50 40.63191 -73.77545 15 ft 1 kts 301°
2026-05-09 16:51 40.63197 -73.77560 15 ft 2 kts 301°
2026-05-09 16:51 40.63202 -73.77571 15 ft 0 kts 301°
2026-05-09 16:51 40.63203 -73.77572 15 ft 0 kts 301°
2026-05-09 16:53 40.63211 -73.77590 15 ft 5 kts 302°
2026-05-09 16:53 40.63245 -73.77663 15 ft 12 kts 301°
2026-05-09 16:54 40.63301 -73.77784 15 ft 16 kts 300°
2026-05-09 16:54 40.63383 -73.77814 15 ft 14 kts 36°
2026-05-09 16:54 40.63462 -73.77747 15 ft 12 kts 29°
2026-05-09 16:54 40.63538 -73.77685 15 ft 12 kts 31°
2026-05-09 16:55 40.63610 -73.77628 16 ft 11 kts 31°
2026-05-09 16:55 40.63679 -73.77572 16 ft 11 kts 31°
2026-05-09 16:55 40.63747 -73.77516 16 ft 11 kts 31°
2026-05-09 16:55 40.63823 -73.77460 16 ft 13 kts 31°
2026-05-09 16:56 40.63901 -73.77399 16 ft 12 kts 32°
2026-05-09 16:56 40.63977 -73.77340 16 ft 12 kts 30°
2026-05-09 16:56 40.64050 -73.77283 16 ft 11 kts 31°
2026-05-09 16:56 40.64129 -73.77221 16 ft 13 kts 31°
2026-05-09 16:57 40.64209 -73.77158 17 ft 13 kts 30°
2026-05-09 16:57 40.64288 -73.77096 17 ft 13 kts 31°
2026-05-09 16:57 40.64372 -73.77032 17 ft 15 kts 29°
2026-05-09 16:57 40.64482 -73.76988 17 ft 17 kts
2026-05-09 16:58 40.64607 -73.76987 17 ft 18 kts 358°
2026-05-09 16:58 40.64727 -73.77035 17 ft 18 kts 323°
2026-05-09 16:58 40.64806 -73.77163 17 ft 17 kts 300°
2026-05-09 16:58 40.64866 -73.77296 17 ft 16 kts 300°
2026-05-09 16:59 40.64923 -73.77423 17 ft 15 kts 300°
2026-05-09 16:59 40.64978 -73.77546 17 ft 15 kts 300°
2026-05-09 16:59 40.65032 -73.77663 17 ft 14 kts 301°
2026-05-09 16:59 40.65086 -73.77776 17 ft 14 kts 302°
2026-05-09 17:00 40.65138 -73.77889 17 ft 14 kts 301°
2026-05-09 17:00 40.65187 -73.78001 17 ft 13 kts 297°
2026-05-09 17:00 40.65235 -73.78111 17 ft 13 kts 301°
2026-05-09 17:00 40.65285 -73.78217 17 ft 13 kts 301°
2026-05-09 17:01 40.65333 -73.78323 17 ft 13 kts 300°
2026-05-09 17:01 40.65362 -73.78430 17 ft 12 kts 258°
2026-05-09 17:01 40.65308 -73.78475 17 ft 10 kts 155°
2026-05-09 17:01 40.65247 -73.78419 17 ft 10 kts 156°
2026-05-09 17:02 40.65180 -73.78429 17 ft 9 kts 203°
2026-05-09 17:02 40.65116 -73.78465 18 ft 9 kts 198°
2026-05-09 17:02 40.65050 -73.78484 18 ft 9 kts 190°
2026-05-09 17:02 40.64994 -73.78492 18 ft 4 kts 180°
2026-05-09 17:03 40.64973 -73.78478 18 ft 3 kts 123°
2026-05-09 17:04 40.64956 -73.78417 18 ft 0 kts 108°